When you browse on this site, cookies collect data to enhance your experience and personalize the content and advertising you see.
Visit our Privacy Policy to learn more. By continuing to use the site, you agree to this use of cookies and data.
  • în România
  • Lista ţărilor
  • Pe 7 zile
  • Temperatura apei
  • Hartă satelitară
  • Meteo pe hartă
  • Widget-uri
  • user-avatar
    Intrare

    Meteo pe oră la Ciechocinek

    Astăzi, 27 Mai, Luni

    Timp Temperatura Precipitaţii Vânt Presiune Umiditate
    00:00 +13°C° 0 mm 3 m/s 753 mmHg 86%
    01:00 +13°C° 0 mm 3 m/s 752 mmHg 87%
    02:00 +13°C° 0 mm 3 m/s 752 mmHg 87%
    03:00 +13°C° 0 mm 4 m/s 752 mmHg 87%
    04:00 +13°C° 0 mm 4 m/s 752 mmHg 86%
    05:00 +14°C° 0 mm 4 m/s 752 mmHg 82%
    06:00 +16°C° 0 mm 5 m/s 751 mmHg 77%
    07:00 +19°C° 0 mm 5 m/s 751 mmHg 73%
    08:00 +20°C° 0 mm 6 m/s 751 mmHg 68%
    09:00 +21°C° 0 mm 6 m/s 752 mmHg 63%
    10:00 +23°C° 0 mm 7 m/s 752 mmHg 58%
    11:00 +23°C° 0.2 mm 7 m/s 751 mmHg 58%
    12:00 +23°C° 0.2 mm 7 m/s 751 mmHg 59%
    13:00 +23°C° 0.2 mm 6 m/s 751 mmHg 59%
    14:00 +23°C° 0.7 mm 6 m/s 751 mmHg 62%
    15:00 +23°C° 0.7 mm 5 m/s 751 mmHg 65%
    16:00 +23°C° 0.7 mm 4 m/s 751 mmHg 67%
    17:00 +21°C° 0.5 mm 3 m/s 751 mmHg 72%
    18:00 +20°C° 0.5 mm 2 m/s 751 mmHg 78%
    19:00 +20°C° 0.5 mm 1 m/s 751 mmHg 83%
    20:00 +19°C° 0 mm 1 m/s 751 mmHg 85%
    21:00 +18°C° 0 mm 1 m/s 751 mmHg 87%
    22:00 +16°C° 0 mm 2 m/s 751 mmHg 90%
    23:00 +16°C° 0 mm 2 m/s 750 mmHg 89%

    Mâine, 28 Mai, Marţi

    Timp Temperatura Precipitaţii Vânt Presiune Umiditate
    00:00 +16°C° 0 mm 2 m/s 750 mmHg 89%
    01:00 +16°C° 0 mm 2 m/s 750 mmHg 89%
    02:00 +16°C° 0.5 mm 2 m/s 749 mmHg 91%
    03:00 +16°C° 0.5 mm 2 m/s 749 mmHg 93%
    04:00 +16°C° 0.5 mm 2 m/s 748 mmHg 95%
    05:00 +16°C° 4.1 mm 2 m/s 748 mmHg 96%
    06:00 +16°C° 4.1 mm 2 m/s 748 mmHg 97%
    07:00 +16°C° 4.1 mm 2 m/s 747 mmHg 98%
    08:00 +17°C° 1.1 mm 2 m/s 747 mmHg 97%
    09:00 +17°C° 1.1 mm 2 m/s 747 mmHg 97%
    10:00 +17°C° 1.1 mm 3 m/s 747 mmHg 96%
    11:00 +17°C° 0.2 mm 3 m/s 748 mmHg 96%
    12:00 +16°C° 0.2 mm 3 m/s 748 mmHg 95%
    13:00 +16°C° 0.2 mm 3 m/s 748 mmHg 95%
    14:00 +15°C° 0.2 mm 4 m/s 748 mmHg 94%
    15:00 +15°C° 0.2 mm 4 m/s 749 mmHg 93%
    16:00 +14°C° 0.2 mm 5 m/s 749 mmHg 92%
    17:00 +14°C° 0.2 mm 5 m/s 749 mmHg 92%
    18:00 +13°C° 0.2 mm 5 m/s 750 mmHg 93%
    19:00 +12°C° 0.2 mm 5 m/s 750 mmHg 93%
    20:00 +12°C° 0.1 mm 5 m/s 751 mmHg 93%
    21:00 +10°C° 0.1 mm 5 m/s 752 mmHg 93%
    22:00 +10°C° 0.1 mm 5 m/s 752 mmHg 92%
    23:00 +10°C° 0 mm 4 m/s 753 mmHg 91%

    Poimâine, 29 Mai, Miercuri

    Timp Temperatura Precipitaţii Vânt Presiune Umiditate
    00:00 +10°C° 0 mm 4 m/s 753 mmHg 89%
    01:00 +8°C° 0 mm 4 m/s 753 mmHg 88%
    02:00 +7°C° 0 mm 4 m/s 754 mmHg 88%
    03:00 +7°C° 0 mm 4 m/s 754 mmHg 89%
    04:00 +8°C° 0 mm 3 m/s 755 mmHg 90%
    05:00 +8°C° 0 mm 4 m/s 756 mmHg 85%
    06:00 +10°C° 0 mm 4 m/s 756 mmHg 80%
    07:00 +10°C° 0 mm 5 m/s 757 mmHg 75%
    08:00 +12°C° 0 mm 5 m/s 757 mmHg 70%
    09:00 +13°C° 0 mm 4 m/s 757 mmHg 65%
    10:00 +14°C° 0 mm 4 m/s 758 mmHg 60%
    11:00 +15°C° 0 mm 4 m/s 758 mmHg 57%
    12:00 +17°C° 0 mm 4 m/s 758 mmHg 54%
    13:00 +18°C° 0 mm 4 m/s 758 mmHg 50%
    14:00 +18°C° 0 mm 4 m/s 758 mmHg 50%
    15:00 +18°C° 0 mm 3 m/s 759 mmHg 51%
    16:00 +18°C° 0 mm 3 m/s 759 mmHg 51%
    17:00 +17°C° 0 mm 3 m/s 759 mmHg 58%
    18:00 +14°C° 0 mm 3 m/s 759 mmHg 66%
    19:00 +13°C° 0 mm 3 m/s 760 mmHg 73%
    20:00 +12°C° 0 mm 3 m/s 760 mmHg 76%
    21:00 +10°C° 0 mm 3 m/s 760 mmHg 79%
    22:00 +9°C° 0 mm 3 m/s 761 mmHg 81%
    23:00 +8°C° 0 mm 2 m/s 761 mmHg 78%

    30 Mai, Joi

    Timp Temperatura Precipitaţii Vânt Presiune Umiditate
    00:00 +7°C° 0 mm 2 m/s 761 mmHg 75%
    01:00 +7°C° 0 mm 2 m/s 761 mmHg 72%
    02:00 +6°C° 0 mm 2 m/s 761 mmHg 72%
    03:00 +7°C° 0 mm 1 m/s 761 mmHg 71%
    04:00 +7°C° 0 mm 1 m/s 761 mmHg 71%
    05:00 +8°C° 0 mm 1 m/s 761 mmHg 67%
    06:00 +10°C° 0 mm 1 m/s 761 mmHg 63%
    07:00 +12°C° 0 mm 1 m/s 761 mmHg 59%
    08:00 +13°C° 0 mm 1 m/s 761 mmHg 57%
    09:00 +15°C° 0 mm 1 m/s 761 mmHg 55%
    10:00 +17°C° 0 mm 2 m/s 761 mmHg 53%
    11:00 +18°C° 0 mm 2 m/s 761 mmHg 51%
    12:00 +19°C° 0 mm 2 m/s 761 mmHg 49%
    13:00 +20°C° 0 mm 2 m/s 760 mmHg 47%
    14:00 +20°C° 0 mm 2 m/s 760 mmHg 48%
    15:00 +20°C° 0 mm 2 m/s 760 mmHg 49%
    16:00 +21°C° 0 mm 2 m/s 760 mmHg 50%
    17:00 +19°C° 0 mm 2 m/s 760 mmHg 56%
    18:00 +18°C° 0 mm 2 m/s 760 mmHg 62%
    19:00 +17°C° 0 mm 2 m/s 760 mmHg 68%
    20:00 +16°C° 0 mm 2 m/s 760 mmHg 70%
    21:00 +15°C° 0 mm 2 m/s 760 mmHg 73%
    22:00 +12°C° 0 mm 3 m/s 760 mmHg 75%
    23:00 +12°C° 0 mm 3 m/s 760 mmHg 76%

    31 Mai, Vineri

    Timp Temperatura Precipitaţii Vânt Presiune Umiditate
    00:00 +11°C° 0 mm 3 m/s 760 mmHg 78%
    01:00 +11°C° 0 mm 3 m/s 760 mmHg 79%
    02:00 +11°C° 0 mm 3 m/s 759 mmHg 80%
    03:00 +11°C° 0 mm 3 m/s 759 mmHg 81%
    04:00 +10°C° 0 mm 3 m/s 759 mmHg 82%
    05:00 +12°C° 0 mm 3 m/s 759 mmHg 79%
    06:00 +14°C° 0 mm 3 m/s 759 mmHg 76%
    07:00 +17°C° 0 mm 3 m/s 759 mmHg 73%
    08:00 +18°C° 0 mm 3 m/s 758 mmHg 70%
    09:00 +20°C° 0 mm 4 m/s 758 mmHg 68%
    10:00 +21°C° 0 mm 4 m/s 758 mmHg 65%
    11:00 +22°C° 0.4 mm 4 m/s 757 mmHg 64%
    12:00 +22°C° 0.4 mm 4 m/s 757 mmHg 64%
    13:00 +23°C° 0.4 mm 4 m/s 757 mmHg 63%
    14:00 +23°C° 1.2 mm 4 m/s 757 mmHg 67%
    15:00 +22°C° 1.2 mm 4 m/s 756 mmHg 70%
    16:00 +22°C° 1.2 mm 3 m/s 756 mmHg 74%
    17:00 +20°C° 1.2 mm 4 m/s 757 mmHg 80%
    18:00 +19°C° 1.2 mm 4 m/s 757 mmHg 85%
    19:00 +17°C° 1.2 mm 4 m/s 757 mmHg 90%
    20:00 +17°C° 0.1 mm 4 m/s 757 mmHg 92%
    21:00 +15°C° 0.1 mm 4 m/s 758 mmHg 93%
    22:00 +15°C° 0.1 mm 4 m/s 758 mmHg 95%
    23:00 +14°C° 0 mm 4 m/s 759 mmHg 94%

    1 Iunie, Sâmbătă

    Timp Temperatura Precipitaţii Vânt Presiune Umiditate
    00:00 +13°C° 0 mm 5 m/s 759 mmHg 94%
    01:00 +12°C° 0 mm 5 m/s 759 mmHg 94%
    02:00 +11°C° 0 mm 6 m/s 760 mmHg 93%
    03:00 +10°C° 0 mm 6 m/s 760 mmHg 92%
    04:00 +10°C° 0 mm 6 m/s 761 mmHg 91%
    05:00 +10°C° 0 mm 6 m/s 761 mmHg 89%
    06:00 +10°C° 0 mm 6 m/s 762 mmHg 87%
    07:00 +9°C° 0 mm 6 m/s 762 mmHg 84%
    08:00 +11°C° 0 mm 6 m/s 762 mmHg 75%
    09:00 +13°C° 0 mm 6 m/s 763 mmHg 66%
    10:00 +15°C° 0 mm 6 m/s 763 mmHg 57%
    11:00 +16°C° 0 mm 7 m/s 763 mmHg 53%
    12:00 +16°C° 0 mm 7 m/s 763 mmHg 50%
    13:00 +17°C° 0 mm 7 m/s 763 mmHg 46%
    14:00 +17°C° 0 mm 7 m/s 763 mmHg 46%
    15:00 +17°C° 0 mm 7 m/s 764 mmHg 47%
    16:00 +16°C° 0 mm 7 m/s 764 mmHg 47%
    17:00 +15°C° 0 mm 6 m/s 764 mmHg 52%
    18:00 +13°C° 0 mm 5 m/s 764 mmHg 57%
    19:00 +10°C° 0 mm 5 m/s 765 mmHg 61%
    20:00 +10°C° 0 mm 4 m/s 765 mmHg 63%
    21:00 +8°C° 0 mm 4 m/s 765 mmHg 64%
    22:00 +7°C° 0 mm 3 m/s 766 mmHg 65%
    23:00 +7°C° 0 mm 3 m/s 766 mmHg 66%
    Arată mai mult